This is the latest recevied weather packets stored in our database for station/object KM4CNW. If no packets are shown the sender has not sent any weather packets the latest 10 day(s).
| Time | Temp. | Humidity | Pressure | Rain* | Wind** | Luminosity | Snow |
|---|---|---|---|---|---|---|---|
| 1777604231 | 12.78° C | 58% | 1007.4 hPa | 0 mm | - | 0 W/m² | - |
| 1777603927 | 13.33° C | 58% | 1007.5 hPa | 0 mm | - | 0 W/m² | - |
| 1777603625 | 13.33° C | 55% | 1007.4 hPa | 0 mm | - | 0 W/m² | - |
| 1777603321 | 13.33° C | 58% | 1007.2 hPa | 0 mm | - | 0 W/m² | - |
| 1777603016 | 13.89° C | 55% | 1007.5 hPa | 0 mm | - | 0 W/m² | - |
| 1777602711 | 13.89° C | 52% | 1007 hPa | 0 mm | - | 0 W/m² | - |
| 1777602406 | 13.89° C | 59% | 1007.3 hPa | 0 mm | - | 0 W/m² | - |
| 1777587227 | 23.33° C | 35% | 1003.4 hPa | 0 mm | - | 161 W/m² | - |
| 1777586013 | 24.44° C | 35% | 1003.3 hPa | 0 mm | - | 195 W/m² | - |
| 1777585713 | 23.89° C | 34% | 1003.5 hPa | 0 mm | - | 377 W/m² | - |
| 1777584199 | 25.56° C | 34% | 1003.2 hPa | 0 mm | - | 229 W/m² | - |
| 1777583898 | 25.56° C | 34% | 1003.5 hPa | 0 mm | - | 355 W/m² | - |
| 1777580563 | 25.56° C | 33% | 1003.2 hPa | 0 mm | - | 617 W/m² | - |
| 1777578741 | 25° C | 39% | 1003.4 hPa | 0 mm | - | 168 W/m² | - |
| 1777577528 | 25.56° C | 36% | 1003.5 hPa | 0 mm | - | 758 W/m² | - |
| 1777577225 | 25° C | 38% | 1003.7 hPa | 0 mm | - | 817 W/m² | - |
| 1777576921 | 25° C | 38% | 1003.7 hPa | 0 mm | - | 828 W/m² | - |
| 1777576616 | 23.89° C | 39% | 1003.9 hPa | 0 mm | - | 836 W/m² | - |
| 1777576312 | 22.78° C | 44% | 1003.9 hPa | 0 mm | - | 847 W/m² | - |
| 1777573881 | 24.44° C | 42% | 1004 hPa | 0 mm | - | 941 W/m² | - |
| 1777573576 | 23.89° C | 43% | 1004 hPa | 0 mm | - | 928 W/m² | - |
| 1777573273 | 23.89° C | 44% | 1004 hPa | 0 mm | - | 963 W/m² | - |
| 1777572969 | 23.33° C | 45% | 1004 hPa | 0 mm | - | 900 W/m² | - |
| 1777572665 | 22.78° C | 46% | 1003.9 hPa | 0 mm | - | 963 W/m² | - |
| 1777572062 | 24.44° C | 45% | 1004.3 hPa | 0 mm | - | 443 W/m² | - |
* Rain latest hour (hover to see other rain measurements)
** Current wind speed in m/s (hover to see current wind gust speed)